Weather in Svetly

Russia / Murmansk Oblast     68°33′01″N   28°56′08″E
temp.,
°C
wind,
m/s
gust,
m/s
humid.,
%
clouds,
%
prec.,
mm/h
press.,
hPa
HPBL,
m
17 may, tue
tue1700:00+1n4984100 0.4 1021882
03:00−1nnw4108695 0.4 1022666
06:00−1nw388349 0.0 1022731
09:00+2nnw4663100 0.1 10221470
12:00+3nw5658100 0.1 10211665
15:00+4nw4655100 0.2 10201815
18:00+3wnw5669100 0.2 10191141
21:00+1w4780100 0.2 1017743
18 may, wed
wed1800:00−2wsw38958 0.0 1015283
03:00−3sw229689 0.0 101437
06:000wnw258495 0.0 1014399
09:00+2nnw61164100 0.3 10151691
12:00+3nnw6956100 0.1 10161696
15:00+4nnw6959100 0.3 10161756
18:00+3nnw61065100 0.3 10171542
21:00+1nnw597090 0.4 10181072
19 may, thu
thu1900:00−1nnw388036 0.0 1020377
03:00−3nw269153 0.0 1021249
06:000nnw367880 0.0 1022726
09:00+2nnw346299 0.1 10221186
12:00+3nnw235685 0.0 10221254
15:00+6nnw1249100 0.1 10211417
18:00+6nnw1148100 0.0 10211369
21:00+4ne116183 0.0 102020
20 may, fri
fri2000:00+1se117763 0.0 102110
03:000se11805 0.0 102110
06:00+2ese126843 0.0 1021174
09:00+5se235643 0.0 1020806
12:00+8sse234980 0.0 10191427
15:00+9sse234399 0.0 10181804
18:00+10s234293 0.0 10171711
21:00+8s125885 0.0 101760
21 may, sat
sat2100:00+6s237098 0.0 101651
03:00+5s2785100 0.1 1015834
06:00+5sse3785100 0.4 1014393
09:00+6se258783 1.1 1013325
12:00+9ssw3770100 0.1 10111151
15:00+9ssw2676100 0.4 1011796
18:00+7s2494100 3.1 1010212
21:00+7s2394100 4.4 1009145